Location: Marcé
(47.5801°N, 0.3280°W)
Time: 22:59:23
(UTC+01:00)

Transit 2A - Pass Details

Date: 03 December 2021
Orbit: 591 x 967 km, 66.7° (Epoch: 16 January)

Event Time Altitude Azimuth Distance (km) Brightness Sun altitude
Rises 05:24:07 0° 302° (WNW) 3,547 - -30.6°
Reaches altitude 10° 05:28:17 10° 329° (NNW) 2,664 - -29.9°
Exits shadow 05:31:04 13° 356° (N) 2,468 8.5 -29.5°
Maximum altitude 05:31:06 13° 356° (N) 2,469 8.5 -29.5°
Drops below altitude 10° 05:33:57 10° 23° (NNE) 2,709 9.0 -29.0°
Sets 05:38:16 0° 50° (NE) 3,663 10.2 -28.2°
